Weather History for Olathe New Century, KS

Change the Weather History Date:

Friday, February 1, 2013

  Actual Average Record
Temperature  
Mean Temperature 16 °F -  
Max Temperature 25 °F 38 °F 63 °F (2003)
Min Temperature 6 °F 22 °F 5 °F (2001)
Degree Days  
Heating Degree Days 50    
Moisture  
Dew Point 7 °F    
Average Humidity 66    
Maximum Humidity 77    
Minimum Humidity 55    
Precipitation  
Precipitation 0.00 in - - ()
Sea Level Pressure  
Sea Level Pressure 30.37 in    
Wind  
Wind Speed 6 mph (South)    
Max Wind Speed 13 mph    
Max Gust Speed -    
Visibility 10 miles    
Events Snow    
Averages and records for this station are not official NWS values.
T = Trace of Precipitation, MM = Missing Value Source: NWS Daily Summary

Daily Weather History Graph

Daily Weather History Graph

Search for Another Location

Airport:

Trip Planner

Search our weather history database for the weather conditions in past years. The results will help you decide how hot, cold, wet, or windy it might be!

Date:

Astronomy

Feb. 01, 2013 Rise Set
Actual Time 7:25 AM CST 5:41 PM CST
Civil Twilight 6:57 AM CST 6:09 PM CST
Nautical Twilight 6:25 AM CST 6:41 PM CST
Astronomical Twilight 5:54 AM CST 7:12 PM CST
Moon 11:45 PM CST (2/1) 10:03 AM CST (2/1)
Length of Visible Light 11h 12m
Length of Day
10h 16m
Waning Gibbous, 70% of the Moon is Illuminated
Feb 1
Waning Gibbous
Feb 3
Last Quarter
Feb 10
New
Feb 17
First Quarter
Feb 25
Full

Hourly Weather History & Observations

Time (CST) Temp. Windchill Dew Point Humidity Pressure Visibility Wind Dir Wind Speed Gust Speed Precip Events Conditions
12:53 AM 8.1 °F 1.4 °F 1.0 °F 73% 30.51 in 10.0 mi West 3.5 mph - 0.00 in   Partly Cloudy
1:53 AM 7.0 °F -1.7 °F 1.0 °F 77% 30.49 in 10.0 mi NNW 4.6 mph - 0.00 in   Clear
2:53 AM 6.1 °F -5.6 °F -0.0 °F 76% 30.49 in 10.0 mi North 6.9 mph - N/A   Clear
3:53 AM 6.1 °F -0.9 °F -0.0 °F 76% 30.47 in 10.0 mi NE 3.5 mph - N/A   Clear
4:53 AM 8.1 °F - -0.0 °F 70% 30.46 in 10.0 mi Calm Calm - 0.00 in   Clear
5:53 AM 7.0 °F - -0.9 °F 70% 30.45 in 9.0 mi Calm Calm - 0.00 in Snow Light Snow
6:53 AM 8.1 °F -2.0 °F 1.0 °F 73% 30.50 in 10.0 mi SW 5.8 mph - 0.00 in   Clear
7:53 AM 9.0 °F -0.9 °F 1.9 °F 73% 30.51 in 10.0 mi SW 5.8 mph - N/A   Clear
8:53 AM 12.0 °F 2.7 °F 3.9 °F 70% 30.51 in 10.0 mi South 5.8 mph - N/A   Clear
10:53 AM 18.0 °F 7.7 °F 6.1 °F 60% 30.46 in 10.0 mi South 8.1 mph - N/A   Clear
11:53 AM 19.9 °F 7.3 °F 8.1 °F 60% 30.43 in 10.0 mi SSE 12.7 mph - N/A   Clear
2:53 PM 25.0 °F 14.2 °F 10.9 °F 55% 30.32 in 10.0 mi SSE 11.5 mph - N/A   Overcast
3:53 PM 25.0 °F 14.8 °F 10.9 °F 55% 30.30 in 10.0 mi SSE 10.4 mph - N/A   Mostly Cloudy
4:53 PM 25.0 °F 14.8 °F 10.9 °F 55% 30.28 in 10.0 mi South 10.4 mph - N/A   Overcast
5:53 PM 25.0 °F 15.5 °F 10.9 °F 55% 30.25 in 10.0 mi SSE 9.2 mph - N/A   Scattered Clouds
6:53 PM 24.1 °F 15.2 °F 12.9 °F 62% 30.25 in 10.0 mi South 8.1 mph - N/A   Partly Cloudy
7:53 PM 24.1 °F 14.4 °F 12.0 °F 60% 30.24 in 10.0 mi South 9.2 mph - N/A   Clear
8:53 PM 23.0 °F 14.7 °F 12.9 °F 65% 30.23 in 10.0 mi South 6.9 mph - N/A   Clear
9:53 PM 21.9 °F 14.5 °F 12.9 °F 68% 30.23 in 10.0 mi South 5.8 mph - N/A   Clear
10:53 PM 24.1 °F 15.2 °F 14.0 °F 65% 30.20 in 10.0 mi South 8.1 mph - N/A   Clear
11:53 PM 25.0 °F 17.1 °F 14.0 °F 63% 30.18 in 10.0 mi South 6.9 mph - N/A   Mostly Cloudy